Starlink 11136

operational
NORAD ID: 60407 Int'l Des: 2024-141 Owner: SPXS Country: US Constellation: starlink
LEOCIRCULAR

Über Starlink 11136

Beschreibung wird geladen...

Live-Position

3D-Globus wird geladen...

Nächste Überflüge

Höhenverlauf

Altitude vs Time

uPlot chart will show altitude changes over time

Zweizeiliger Elementsatz

1 60407U 24141K 25305.41184341 .00002581 00000-0 26127-4 0 9998
2 60407 53.1589 358.7532 0001295 98.1174 261.9991 15.69743435 71541
Epoch: 1. Nov. 2025 • Age: 14 hours

Aktueller Status

Höhe 359.8 km
Geschwindigkeit 7.70 km/s
Subsatellitenpunkt 17.87°N, 27.68°W
Startdatum 10. Aug. 2024
Alter 1.2 years
Typ internet

Technische Details

Klassifizierung Payload
Masse 960.00 kg
Trockenmasse 910.00 kg
Gesamtmasse 960.00 kg
Länge 0.30 m
Durchmesser 4.10 m
Spannweite 29.00 m
Form Box + pan
Hersteller SPXS
Bus-Typ Starlink V2MD
Phasenstatus In Orbit
Besitzer/Staat SPXS/US

Große Konstellationen

Loading constellations...